Latest Coastal Weather Observations for Eucla

IDS60701

Issued at 1:32 am CST Friday 26 May 2017 (issued every 10 minutes, with the page automatically refreshed every 10 minutes)

About coastal observations | Map of coastal stations | Coastal observations for SA | Marine services | Other Formats
Station Details ID: 011003 Name: EUCLA Lat: -31.68 Lon: 128.90 Height: 93.1 m
Data from the previous 72 hours. | See also: Recent months at Eucla
Date/Time
CST
Temp
°C
Wind Pressure Rain since
9am
mm
Weather Cloud Vis
km
Sea
Height
m
Swell
Dir  Spd
kts
Gust
kts
hPa Trend Height
m
Period
s
Dir
26/01:30am 11.8 NE 6 8 1020.5 - 0.0 - - - - - - -
26/01:00am 12.0 NE 6 8 1020.8 - 0.0 - - - - - - -
26/12:30am 12.0 NE 6 6 1021.0 - 0.0 - - - - - - -
26/12:00am 11.9 NE 6 6 1021.3 - 0.0 - - - - - - -
 
Date/Time
CST
Temp
°C
Wind Pressure Rain since
9am
mm
Weather Cloud Vis
km
Sea
Height
m
Swell
Dir  Spd
kts
Gust
kts
hPa Trend Height
m
Period
s
Dir
25/11:30pm 12.3 ENE 6 8 1021.1 - 0.0 - - - - - - -
25/11:00pm 12.5 ENE 7 8 1021.2 - 0.0 - - - - - - -
25/10:30pm 12.8 ENE 6 7 1021.4 - 0.0 - - - - - - -
25/10:00pm 13.5 ENE 6 7 1021.7 - 0.0 - - - - - - -
25/09:30pm 14.2 E 6 7 1021.8 - 0.0 - - - - - - -
25/09:00pm 14.6 E 6 7 1021.6 - 0.0 - - - - - - -
25/08:30pm 15.1 ESE 6 7 1021.8 - 0.0 - - - - - - -
25/08:00pm 15.2 ESE 6 7 1021.8 - 0.0 - - - - - - -
25/07:30pm 15.3 ESE 6 7 1021.7 - 0.0 - - - - - - -
25/07:00pm 15.3 ESE 5 7 1021.6 - 0.0 - - - - - - -
25/06:30pm 15.8 ESE 5 6 1021.6 - 0.0 - - - - - - -
25/06:00pm 16.4 SE 5 6 1021.4 - 0.0 - - - - - - -
25/05:30pm 17.4 SE 6 8 1021.4 - 0.0 - - - - - - -
25/05:00pm 18.0 SE 7 10 1021.4 - 0.0 - - - - - - -
25/04:30pm 18.6 SE 8 10 1021.4 - 0.0 Fine Mostly clear 40 - - - -
25/04:00pm 19.0 SSE 7 10 1021.4 - 0.0 - - - - - - -
25/03:30pm 19.6 SE 8 11 1021.5 - 0.0 - - - - - - -
25/03:00pm 19.5 SE 8 11 1021.5 - 0.0 - - - - - - -
25/02:30pm 20.6 ESE 9 13 1021.5 - 0.0 - - - - - - -
25/02:00pm 20.7 ESE 8 13 1021.7 - 0.0 - - - - - - -
25/01:30pm 21.0 ESE 9 12 1022.0 - 0.0 - - - - - - -
25/01:00pm 20.9 ESE 9 12 1022.5 - 0.0 - - - - - - -
25/12:30pm 20.8 SE 8 10 1022.9 - 0.0 - - - - - - -
25/12:00pm 20.8 SE 7 10 1023.3 - 0.0 - - - - - - -
25/11:30am 20.6 ESE 6 9 1023.4 - 0.0 - - - - - - -
25/11:00am 20.4 ESE 6 9 1023.3 - 0.0 - - - - - - -
25/10:30am 20.2 E 4 6 1023.3 - 0.0 Fine Clear 40 - - - -
25/10:00am 18.0 N 4 5 1023.1 - 0.0 - - - - - - -
25/09:30am 14.6 N 4 5 1023.0 - 0.0 - - - - - - -
25/09:00am 10.8 NNW 4 5 1022.8 - 0.0 - - - - - - -
25/08:30am 6.7 N 6 7 1022.4 - 0.0 - - - - - - -
25/08:00am 4.6 N 6 8 1022.1 - 0.0 - - - - - - -
25/07:30am 5.7 N 6 6 1021.8 - 0.0 - - - - - - -
25/07:00am 5.8 NW 5 6 1021.6 - 0.0 - - - - - - -
25/06:30am 6.7 NW 6 7 1021.4 - 0.0 - - - - - - -
25/06:00am 7.9 NW 6 6 1021.4 - 0.0 - - - - - - -
25/05:30am 8.1 NW 6 6 1021.2 - 0.0 - - - - - - -
25/05:00am 8.5 NW 5 6 1021.2 - 0.0 - - - - - - -
25/04:30am 7.2 NNW 5 6 1021.3 - 0.0 - - - - - - -
25/04:00am 7.6 NNW 7 8 1021.2 - 0.0 - - - - - - -
25/03:30am 6.8 N 5 6 1021.2 - 0.0 - - - - - - -
25/03:00am 7.1 N 6 7 1021.2 - 0.0 - - - - - - -
25/02:30am 7.2 N 6 6 1021.4 - 0.0 - - - - - - -
25/02:00am 7.7 N 6 7 1021.1 - 0.0 - - - - - - -
25/01:30am 8.4 N 6 7 1021.4 - 0.0 - - - - - - -
25/01:00am 8.6 N 6 7 1021.3 - 0.0 - - - - - - -
25/12:30am 8.8 N 6 7 1021.6 - 0.0 - - - - - - -
25/12:00am 9.4 N 7 7 1021.7 - 0.0 - - - - - - -
 
Date/Time
CST
Temp
°C
Wind Pressure Rain since
9am
mm
Weather Cloud Vis
km
Sea
Height
m
Swell
Dir  Spd
kts
Gust
kts
hPa Trend Height
m
Period
s
Dir
24/11:30pm 10.6 NNE 6 7 1021.7 - 0.0 - - - - - - -
24/11:00pm 11.1 NNE 6 8 1021.8 - 0.0 - - - - - - -
24/10:30pm 11.6 NNE 7 8 1021.8 - 0.0 - - - - - - -
24/10:00pm 11.9 NNE 6 7 1022.0 - 0.0 - - - - - - -
24/09:30pm 12.8 NNE 7 8 1021.8 - 0.0 - - - - - - -
24/09:00pm 13.7 NNE 7 9 1021.7 - 0.0 - - - - - - -
24/08:30pm 14.1 NE 7 8 1021.6 - 0.0 - - - - - - -
24/08:00pm 14.4 NE 7 9 1021.4 - 0.0 - - - - - - -
24/07:30pm 14.5 NE 6 8 1021.2 - 0.0 - - - - - - -
24/07:00pm 14.8 E 5 7 1020.9 - 0.0 - - - - - - -
24/06:30pm 15.4 ENE 5 7 1020.6 - 0.0 - - - - - - -
24/06:00pm 16.8 E 5 7 1020.4 - 0.0 - - - - - - -
24/05:30pm 17.9 ESE 6 9 1020.1 - 0.0 - - - - - - -
24/05:00pm 19.1 SE 6 8 1020.1 - 0.0 - - - - - - -
24/04:30pm 20.1 SSE 5 8 1020.0 - 0.0 Fine Clear 40 - - - -
24/04:00pm 22.7 WNW 7 12 1019.9 - 0.0 - - - - - - -
24/03:30pm 23.2 NNW 6 10 1020.0 - 0.0 - - - - - - -
24/03:00pm 23.0 NW 7 10 1020.1 - 0.0 - - - - - - -
24/02:30pm 22.8 NW 7 13 1020.4 - 0.0 - - - - - - -
24/02:00pm 22.8 N 8 12 1020.7 - 0.0 - - - - - - -
24/01:30pm 22.5 NNW 8 14 1021.2 - 0.0 - - - - - - -
24/01:00pm 22.5 NNW 6 12 1021.7 - 0.0 - - - - - - -
24/12:30pm 21.9 NW 7 11 1022.3 - 0.0 - - - - - - -
24/12:00pm 21.7 NW 7 13 1022.8 - 0.0 - - - - - - -
24/11:30am 21.1 NNW 7 9 1023.3 - 0.0 - - - - - - -
24/11:00am 19.9 N 6 8 1023.6 - 0.0 - - - - - - -
24/10:30am 18.9 NNW 6 8 1023.8 - 0.0 Fine Clear 40 - - - -
24/10:00am 17.1 NNW 7 8 1023.7 - 0.0 - - - - - - -
24/09:30am 14.1 NNW 6 8 1023.5 - 0.0 - - - - - - -
24/09:00am 11.7 NNW 6 8 1023.3 - 0.0 - - - - - - -
24/08:30am 9.1 NNW 7 8 1023.2 - 0.0 - - - - - - -
24/08:00am 7.1 NNW 7 8 1023.0 - 0.0 - - - - - - -
24/07:30am 6.8 NNW 7 8 1022.7 - 0.0 - - - - - - -
24/07:00am 6.9 NNW 7 8 1022.5 - 0.0 - - - - - - -
24/06:30am 6.6 N 6 7 1022.3 - 0.0 - - - - - - -
24/06:00am 6.6 N 7 8 1022.2 - 0.0 - - - - - - -
24/05:30am 6.5 N 7 7 1022.1 - 0.0 - - - - - - -
24/05:00am 6.8 N 7 8 1022.1 - 0.0 - - - - - - -
24/04:30am 6.6 N 7 8 1022.2 - 0.0 - - - - - - -
24/04:00am 6.6 N 6 7 1022.4 - 0.0 - - - - - - -
24/03:30am 6.9 N 6 7 1022.5 - 0.0 - - - - - - -
24/03:00am 7.0 N 6 7 1022.5 - 0.0 - - - - - - -
24/02:30am 7.2 N 7 8 1022.5 - 0.0 - - - - - - -
24/02:00am 7.1 N 5 6 1022.8 - 0.0 - - - - - - -
24/01:30am 7.1 N 6 6 1022.8 - 0.0 - - - - - - -
24/01:00am 7.4 N 6 6 1022.8 - 0.0 - - - - - - -
24/12:30am 7.8 N 6 6 1022.9 - 0.0 - - - - - - -
24/12:00am 8.0 N 5 6 1023.0 - 0.0 - - - - - - -
 
Date/Time
CST
Temp
°C
Wind Pressure Rain since
9am
mm
Weather Cloud Vis
km
Sea
Height
m
Swell
Dir  Spd
kts
Gust
kts
hPa Trend Height
m
Period
s
Dir
23/11:30pm 7.9 N 5 6 1022.9 - 0.0 - - - - - - -
23/11:00pm 8.4 N 5 6 1022.9 - 0.0 - - - - - - -
23/10:30pm 9.1 NNW 5 6 1022.9 - 0.0 - - - - - - -
23/10:00pm 9.4 NNW 4 5 1022.8 - 0.0 - - - - - - -
23/09:30pm 9.4 W 3 4 1022.7 - 0.0 - - - - - - -
23/09:00pm 9.9 SW 4 4 1022.5 - 0.0 - - - - - - -
23/08:30pm 11.3 SW 5 6 1022.3 - 0.0 - - - - - - -
23/08:00pm 11.7 SSW 4 5 1022.1 - 0.0 - - - - - - -
23/07:30pm 12.0 SW 5 6 1021.8 - 0.0 - - - - - - -
23/07:00pm 13.2 SSW 5 5 1021.5 - 0.0 - - - - - - -
23/06:30pm 14.8 SSW 5 6 1021.1 - 0.0 - - - - - - -
23/06:00pm 16.0 SSW 5 6 1020.9 - 0.0 - - - - - - -
23/05:30pm 17.2 S 6 8 1020.7 - 0.0 - - - - - - -
23/05:00pm 18.3 S 6 9 1020.4 - 0.0 - - - - - - -
23/04:30pm 18.8 S 7 11 1020.0 - 0.0 Fine Clear 40 - - - -
23/04:00pm 20.6 WSW 8 14 1019.9 - 0.0 - - - - - - -
23/03:30pm 21.2 W 9 13 1019.9 - 0.0 - - - - - - -
23/03:00pm 21.3 WSW 9 14 1019.8 - 0.0 - - - - - - -
23/02:30pm 20.9 WSW 9 16 1020.0 - 0.0 - - - - - - -
23/02:00pm 21.1 W 9 14 1020.1 - 0.0 - - - - - - -
23/01:30pm 20.5 W 11 18 1020.4 - 0.0 - - - - - - -
23/01:00pm 19.9 W 10 15 1020.9 - 0.0 - - - - - - -
23/12:30pm 19.9 WSW 10 16 1021.4 - 0.0 - - - - - - -
23/12:00pm 19.3 W 11 17 1021.8 - 0.0 - - - - - - -
23/11:30am 18.2 W 10 17 1022.0 - 0.0 - - - - - - -
23/11:00am 17.5 W 9 14 1022.2 - 0.0 - - - - - - -
23/10:30am 16.1 WNW 9 14 1022.2 - 0.0 Fine Mostly clear 40 - - - -
23/10:00am 14.5 WNW 9 14 1022.1 - 0.0 - - - - - - -
23/09:30am 12.6 NW 9 14 1021.9 - 0.0 - - - - - - -
23/09:00am 10.9 NW 8 12 1021.7 - 0.0 - - - - - - -
23/08:30am 8.9 NW 8 11 1021.4 - 0.0 - - - - - - -
23/08:00am 8.1 NW 8 11 1021.1 - 0.0 - - - - - - -
23/07:30am 8.2 WNW 9 13 1020.7 - 0.0 - - - - - - -
23/07:00am 7.5 NW 9 12 1020.6 - 0.0 - - - - - - -
23/06:30am 6.1 NW 8 10 1020.5 - 0.0 - - - - - - -
23/06:00am 7.4 NW 8 11 1020.2 - 0.0 - - - - - - -
23/05:30am 8.0 NW 8 12 1019.8 - 0.0 - - - - - - -
23/05:00am 8.3 WNW 8 14 1019.7 - 0.0 - - - - - - -
23/04:30am 8.4 WNW 8 10 1019.4 - 0.0 - - - - - - -
23/04:00am 9.1 WNW 8 13 1019.3 - 0.0 - - - - - - -
23/03:30am 8.8 WNW 9 15 1019.4 - 0.0 - - - - - - -

Other Formats:

Comma delimited format used in spreadsheet applications
http://www.bom.gov.au/fwo/IDS60701/IDS60701.94647.axf

JavaScript Object Notation format (JSON) in row-major order
http://www.bom.gov.au/fwo/IDS60701/IDS60701.94647.json